Temp
15 15 15 15 14 14 14 13 13 13 12 12 12 11 11 11 11 10 10 10 10 9 9 9 9 9 9 9 9 9 9 8 8 8 9 9 9 10 11 12 13 14 15
14 14 14 14 14 14 13 13 13 13 12 11 11 11 10 10 10 10 9 9 9 9 9 9 8 8 8 8 8 8 7 8 7 7 8 8 8 9 9 10 11 12 13
13 13 13 13 13 13 13 12 12 11 11 11 11 10 10 10 9 9 9 9 9 9 9 9 9 9 8 8 8 7 7 7 7 7 7 7 7 7 8 9 10 11 11
12 12 12 12 12 12 12 11 11 10 10 10 10 10 9 9 9 9 9 9 9 9 9 8 8 8 7 7 7 7 7 7 7 6 6 7 8 7 8 8 8 10 10
10 10 9 9 10 10 10 10 10 10 10 10 9 9 9 9 9 8 8 8 8 7 8 9 8 8 8 7 7 7 7 7 7 8 8 8 7 7 7 8 8 8 9
8 7 7 8 8 8 8 8 9 9 9 9 9 8 9 8 8 8 8 8 8 8 7 8 7 7 8 8 8 8 7 7 8 8 8 8 8 7 7 7 7 7 7
6 6 6 6 6 6 7 7 8 8 8 8 8 8 8 8 8 7 7 6 6 6 6 6 6 7 7 7 7 8 7 7 7 7 8 7 7 7 7 7 6 6 7
4 4 4 4 5 5 6 7 7 8 8 8 8 8 7 7 7 6 5 5 5 5 5 5 5 6 6 6 6 6 7 7 7 7 7 7 7 7 7 7 6 6 6
3 3 3 4 4 5 5 6 7 7 7 7 7 7 7 6 6 4 3 3 3 5 4 4 5 5 6 7 6 5 6 6 7 7 7 8 8 7 7 7 6 6 7
3 3 3 3 3 4 5 5 6 6 6 7 6 6 6 5 4 2 2 1 1 2 3 6 6 6 7 7 8 6 5 6 7 7 7 7 7 7 7 6 6 7 7
3 3 3 3 3 4 4 4 4 5 5 5 5 5 5 4 3 1 2 1 1 1 2 4 6 6 7 7 9 8 7 6 6 7 7 7 7 7 7 7 7 6 6
3 3 3 3 3 4 3 3 3 3 3 3 3 3 3 2 1 1 2 1 1 2 3 4 5 6 6 6 6 7 8 7 5 6 7 7 7 7 7 7 7 8 8
3 3 2 3 3 3 3 2 2 2 2 2 2 1 0 0 -0 1 2 1 2 3 4 5 4 5 5 4 5 5 6 7 6 5 6 7 7 7 7 7 7 8 8
4 3 3 2 3 3 2 2 1 0 0 0 0 0 -0 -0 -1 -1 1 1 2 3 3 4 4 3 4 3 3 3 4 4 5 7 7 7 7 7 7 7 8 8 8
4 4 3 3 3 3 3 2 1 1 0 -0 -1 -1 -1 -1 -1 -1 0 0 1 2 2 2 2 2 2 2 2 2 2 2 3 5 7 7 7 7 7 8 8 8 9
4 4 4 3 3 3 3 3 2 2 1 0 -0 -1 -1 -1 -2 -1 -0 -0 -0 1 1 1 1 1 1 1 1 1 1 1 1 3 6 8 8 8 9 9 10 9 9
4 4 4 3 3 2 2 2 2 2 1 0 -1 -1 -2 -2 -2 -1 -1 -0 -0 -0 -0 -0 -0 -0 0 -0 -1 -0 -0 -0 0 1 2 5 8 8 9 9 10 11 11
3 3 2 2 2 1 1 1 0 -0 -1 -1 -2 -2 -2 -2 -3 -2 -2 -1 -1 -1 -1 -1 -1 -1 -1 -1 -1 -1 -1 -1 -1 -0 1 2 4 7 9 10 11 11 12
2 2 1 1 0 0 0 -0 -1 -1 -2 -2 -3 -3 -3 -3 -4 -4 -3 -2 -2 -2 -2 -1 -2 -2 -2 -2 -2 -2 -2 -2 -2 -1 -0 1 2 4 7 11 11 11 13
1 0 0 -0 -1 -1 -2 -2 -2 -3 -3 -3 -3 -4 -4 -4 -5 -5 -5 -5 -4 -3 -3 -3 -3 -3 -3 -3 -3 -3 -3 -3 -3 -2 -1 -0 1 2 6 11 12 11 12
-1 -1 -1 -2 -2 -3 -3 -4 -4 -4 -4 -4 -5 -4 -5 -5 -6 -6 -6 -6 -5 -5 -5 -4 -4 -4 -4 -4 -5 -4 -4 -4 -4 -3 -2 -1 -1 2 6 11 12 12 12
-2 -2 -3 -3 -4 -4 -4 -4 -4 -5 -5 -5 -5 -5 -5 -6 -6 -7 -6 -7 -7 -6 -6 -6 -5 -5 -5 -5 -5 -5 -5 -5 -5 -4 -3 -2 -0 3 5 10 12 11 11
-2 -2 -3 -3 -4 -4 -4 -5 -5 -5 -5 -5 -5 -6 -6 -6 -7 -7 -7 -7 -7 -7 -7 -7 -6 -6 -6 -6 -6 -6 -6 -6 -6 -5 -4 -2 0 2 5 9 12 11 10
-2 -3 -3 -3 -4 -4 -4 -5 -5 -5 -5 -5 -6 -6 -6 -7 -7 -8 -7 -8 -8 -8 -8 -7 -7 -7 -7 -6 -7 -7 -6 -6 -6 -5 -3 -2 -0 1 3 8 10 9 9
-2 -2 -3 -4 -4 -4 -5 -5 -5 -5 -6 -6 -6 -6 -7 -7 -7 -8 -8 -8 -8 -8 -8 -8 -7 -7 -7 -7 -7 -7 -7 -7 -5 -5 -4 -2 -0 1 2 6 10 9 9
-2 -2 -3 -4 -4 -5 -5 -5 -6 -6 -6 -7 -6 -7 -7 -7 -8 -8 -8 -8 -8 -8 -8 -8 -8 -8 -7 -8 -8 -7 -7 -6 -6 -4 -4 -3 -1 -0 1 3 7 10 9
Height
766 768 770 772 774 775 776 776 778 780 781 781 781 780 778 774 772 770 767 765 762 760 759 758 755 754 752 750 748 746 743 742 735 730 729 726 722 719 715 712 709 705 703
770 772 774 775 776 776 777 777 778 779 780 780 779 777 774 772 771 768 765 763 760 758 756 753 750 748 745 742 740 738 736 734 731 725 721 719 716 714 710 706 703 701 699
773 774 775 775 776 777 777 778 778 779 778 778 777 774 771 769 768 766 763 760 758 755 751 747 744 741 736 733 732 730 728 726 723 720 713 710 708 707 703 700 697 693 691
773 774 774 774 774 774 775 776 777 777 776 776 774 771 770 768 765 764 760 756 753 749 746 743 738 735 730 727 724 721 719 718 715 712 708 705 702 698 696 694 689 687 683
774 775 775 774 774 774 775 775 775 775 774 772 771 770 768 766 762 761 757 753 749 745 740 735 731 726 722 719 716 712 711 709 707 704 700 699 697 693 689 689 687 683 678
776 776 775 774 774 774 774 774 773 772 771 771 770 768 765 763 761 758 754 750 745 740 734 729 725 719 713 709 706 703 701 698 694 692 692 691 690 689 685 683 682 679 675
774 774 774 774 773 773 774 773 772 771 771 769 768 766 764 761 758 755 751 745 740 735 730 724 718 711 706 701 696 692 688 684 683 683 681 681 681 677 680 678 677 676 672
774 775 775 774 774 774 773 772 771 770 769 768 766 764 762 759 756 752 747 741 735 730 724 719 715 706 699 694 689 683 677 672 669 669 670 670 671 671 672 671 671 669 667
774 774 774 774 774 773 772 771 770 769 767 766 765 762 759 757 754 748 742 737 730 725 720 715 710 701 693 687 679 673 666 659 657 658 659 661 662 664 665 666 666 667 661
775 774 774 774 774 773 773 772 770 768 766 764 762 761 759 755 750 746 741 736 729 722 716 709 702 697 688 678 669 664 658 650 649 648 649 651 654 656 657 659 660 661 661
777 776 774 774 773 774 772 771 769 766 765 763 762 760 757 753 748 746 740 735 729 723 715 706 699 691 682 673 665 659 654 647 644 643 643 643 644 645 646 648 651 654 655
779 777 775 775 774 773 772 770 768 766 765 763 761 757 754 750 746 742 737 733 727 722 714 706 698 689 680 672 664 656 648 643 639 638 638 636 636 637 637 641 642 643 645
783 780 777 775 774 774 772 771 769 767 765 762 760 757 753 749 744 738 734 729 723 718 712 704 696 686 680 672 661 654 646 640 637 634 631 630 629 629 631 633 636 637 637
784 782 781 778 776 775 774 772 771 769 767 764 762 759 756 751 745 739 733 727 722 716 709 702 695 688 682 672 660 654 649 644 638 631 627 626 625 625 626 628 629 630 630
783 783 783 781 780 778 775 774 773 773 771 768 766 764 759 754 750 744 738 731 725 719 712 704 695 685 679 672 664 660 652 644 637 630 626 624 623 622 621 622 622 623 624
784 783 781 781 781 779 778 776 776 775 774 773 770 767 763 759 753 746 740 735 728 721 714 707 701 696 690 684 675 665 657 649 642 634 627 623 623 620 616 614 609 613 618
786 784 783 782 781 779 778 778 777 777 776 776 772 767 763 758 752 747 741 736 730 722 717 713 709 703 698 691 683 675 665 656 648 640 631 623 620 618 614 611 608 603 613
789 788 786 785 783 782 781 781 780 780 779 776 772 769 764 758 754 749 743 737 732 726 723 719 715 710 703 697 688 679 669 659 649 641 633 627 620 614 610 609 606 608 610
792 791 790 788 787 786 785 784 784 783 781 779 775 769 765 762 757 752 746 742 738 733 729 724 721 714 708 701 694 685 676 665 656 646 637 630 622 616 608 606 607 607 609
795 794 793 792 791 790 789 788 788 787 784 782 779 777 771 765 758 755 751 748 744 740 735 730 725 720 713 706 698 689 679 668 658 650 639 632 623 616 609 602 604 605 609
797 797 796 796 795 794 794 793 791 790 789 787 784 782 777 771 767 763 759 754 749 745 740 735 730 724 718 710 703 694 685 675 664 655 644 633 624 614 607 600 601 605 607
800 801 800 800 800 799 798 796 795 794 792 790 787 783 779 775 772 768 764 759 754 750 744 739 734 729 723 716 708 699 691 681 669 657 647 636 627 618 609 602 601 605 610
804 804 804 804 804 803 801 800 798 796 794 792 789 785 782 779 775 772 768 762 757 751 746 741 737 732 726 721 714 706 697 688 678 666 653 640 631 622 612 605 605 609 612
808 808 808 808 807 806 804 802 800 798 795 793 791 788 785 782 779 775 770 765 759 754 749 744 740 736 730 724 717 709 702 694 683 671 658 648 636 625 616 611 610 609 614
813 812 811 811 810 809 807 805 802 800 797 795 792 789 787 785 781 776 772 767 762 757 752 747 743 738 732 727 721 712 702 694 685 674 664 654 645 633 626 620 617 617 619
816 816 815 814 812 811 808 806 804 801 798 796 793 791 788 785 781 778 774 769 765 760 755 750 744 739 734 728 722 715 706 695 688 677 669 661 651 642 635 632 628 626 626
Wind_Speed
15 14 12 11 8 6 5 3 2 1 0 3 4 9 10 13 14 15 17 20 21 23 24 26 28 27 27 27 26 28 27 24 14 24 26 25 28 29 31 36 37 37 38
13 12 10 8 6 5 2 1 1 2 3 5 6 10 13 15 16 17 18 19 21 23 24 26 28 30 30 26 27 30 27 28 24 17 27 24 25 26 27 30 31 32 34
14 12 8 5 5 4 3 3 3 4 4 5 9 14 15 16 16 16 17 16 18 21 24 25 27 28 31 29 28 28 26 26 25 22 24 25 23 23 29 27 27 24 28
11 12 13 10 5 1 2 2 2 1 4 9 13 14 15 15 15 16 17 19 22 25 27 28 32 33 32 32 29 30 29 26 25 22 21 22 23 22 23 25 25 25 29
12 12 13 12 12 10 8 5 3 6 10 12 14 14 15 14 16 18 20 23 26 28 29 32 34 33 32 33 31 30 27 25 24 23 20 18 17 20 20 20 20 24 28
11 10 8 7 7 7 6 7 9 10 10 12 13 14 15 15 17 16 19 24 27 30 32 32 33 33 36 37 38 39 39 33 28 24 19 15 21 19 24 23 21 15 6
11 10 10 10 10 10 10 9 9 10 11 12 12 14 16 18 16 17 25 25 26 28 30 30 33 33 34 33 34 36 38 42 45 37 28 25 24 27 22 23 20 18 17
14 11 10 11 10 10 8 7 10 12 12 13 14 14 18 17 16 24 24 24 28 29 29 30 31 35 34 34 32 30 31 32 35 36 35 37 34 31 27 27 26 24 24
18 14 11 9 10 10 10 11 12 13 14 14 14 15 16 17 22 22 24 25 28 29 29 31 29 31 32 40 36 30 31 30 31 36 37 36 36 34 29 21 21 16 12
18 15 10 7 8 8 11 11 12 11 9 11 13 14 16 20 22 22 23 25 26 28 33 30 30 29 40 41 34 25 25 30 25 25 24 30 33 35 34 30 25 16 15
16 14 11 8 8 8 9 10 12 11 12 12 12 15 18 20 21 20 23 23 23 27 27 30 30 35 37 34 29 25 22 26 23 22 22 23 24 25 25 26 28 29 22
16 14 11 8 8 9 10 13 13 14 13 13 15 21 22 23 21 23 23 22 21 22 25 25 29 32 33 28 31 33 26 21 17 19 18 19 22 23 25 23 26 27 32
13 16 16 11 7 9 12 15 17 19 18 12 14 16 21 22 24 27 26 28 25 21 22 22 26 27 29 27 33 34 32 25 18 15 16 19 21 23 24 22 24 27 29
8 9 16 16 14 14 14 14 15 17 16 15 16 17 19 21 26 31 29 31 27 24 26 23 26 25 25 30 34 33 29 28 26 19 16 17 17 16 17 20 20 22 22
7 6 4 8 14 14 14 13 14 18 22 17 18 15 18 21 27 26 21 26 25 21 22 22 27 33 34 36 37 33 32 33 30 28 17 14 13 13 16 18 20 19 16
9 8 6 5 10 10 13 15 11 12 16 22 19 20 17 20 26 26 20 20 25 22 22 25 27 28 28 31 33 35 32 33 33 30 23 18 11 12 15 15 21 25 17
15 16 15 12 12 13 12 12 14 14 13 17 23 23 23 21 27 29 25 20 25 27 24 25 25 27 28 30 31 31 32 33 30 26 26 24 17 15 16 14 14 14 15
16 17 18 18 18 20 21 19 18 15 13 17 24 22 25 25 26 28 28 23 24 28 26 24 26 27 28 30 32 33 35 36 34 32 28 26 24 20 13 11 10 2 11
15 16 17 18 18 18 19 20 20 19 17 16 22 29 27 27 25 28 29 26 24 26 26 25 27 28 28 30 32 32 33 33 33 31 29 28 27 24 20 9 12 10 12
15 15 16 17 18 19 19 20 18 18 19 19 19 24 27 26 29 29 29 27 26 25 26 26 27 29 29 30 33 33 35 37 37 35 34 31 29 25 21 11 8 14 15
14 15 16 17 18 17 18 19 19 18 18 19 19 22 24 22 24 24 25 27 27 26 27 26 27 29 30 31 33 34 34 36 37 36 36 35 32 29 29 11 11 14 16
15 17 19 19 18 19 19 19 19 19 19 18 19 21 23 22 23 24 23 26 26 26 26 26 25 28 30 30 33 35 35 38 41 42 40 38 34 31 28 15 12 17 19
17 18 19 20 19 17 20 20 19 18 18 20 19 21 22 22 23 23 22 27 27 28 29 27 24 28 29 28 33 34 35 40 42 42 42 38 34 32 29 17 15 16 18
18 16 16 15 17 16 16 17 18 18 17 18 19 19 20 22 24 22 21 26 28 29 28 26 24 27 29 29 33 38 37 43 43 43 42 37 35 35 30 21 17 18 20
16 15 14 13 16 15 15 17 17 17 17 18 18 18 19 22 22 23 24 24 24 25 25 25 26 29 30 29 33 40 43 44 46 43 41 37 36 37 35 29 15 16 19
12 13 13 13 14 14 15 17 18 18 18 20 22 19 17 24 23 23 25 24 24 24 24 25 27 30 29 30 36 36 41 45 47 45 43 38 42 41 39 32 24 11 13
Wind_Direction
106 109 110 107 98 86 88 79 67 88 184 325 324 336 332 333 327 320 317 312 311 310 308 305 305 299 293 293 291 286 275 267 272 284 281 285 289 287 285 281 284 290 294
108 115 121 129 138 143 135 145 256 243 268 301 307 318 323 326 318 315 313 311 309 308 305 304 299 298 290 285 283 275 266 267 264 273 279 283 283 285 290 288 285 281 280
101 110 114 137 183 197 210 219 223 238 279 298 317 321 326 324 319 316 313 311 308 303 303 303 303 298 287 282 274 267 266 266 263 260 270 281 280 280 282 282 284 288 286
90 81 75 69 78 133 155 140 121 77 317 319 322 322 322 321 318 321 324 324 319 312 307 305 302 294 284 280 276 270 267 263 262 258 262 268 281 283 278 280 283 285 290
88 84 75 75 75 83 83 72 14 334 326 328 325 323 320 319 331 331 329 325 316 311 306 299 294 290 284 276 268 267 264 260 262 262 264 265 267 281 275 279 284 290 288
84 69 53 45 32 22 5 349 338 333 329 324 326 330 327 339 345 342 330 320 313 306 299 298 295 287 281 281 281 273 264 259 251 248 253 256 262 258 271 277 277 285 302
54 36 18 1 352 342 334 328 328 331 327 326 331 343 345 345 344 337 328 319 313 308 305 300 297 295 291 286 282 280 275 265 258 255 256 253 256 250 250 267 265 268 272
44 29 9 360 354 344 336 337 332 330 327 329 331 339 343 346 343 333 327 321 316 319 316 306 296 294 299 291 286 283 277 267 256 253 248 251 254 257 248 255 267 274 279
29 18 8 4 354 352 348 337 330 328 330 340 345 344 345 341 339 338 337 330 323 322 322 314 312 305 311 320 304 284 279 275 263 251 252 258 262 261 258 257 257 263 276
17 9 3 357 341 344 346 342 343 357 355 353 345 345 342 340 350 349 346 337 319 323 324 333 334 321 331 332 328 298 271 267 267 251 247 253 259 260 258 247 248 241 262
12 9 10 0 2 1 359 355 351 358 347 350 352 349 350 352 353 345 350 343 331 317 313 317 325 338 344 350 352 334 309 306 276 265 249 246 249 256 257 255 246 235 238
24 20 19 16 24 26 21 11 20 16 10 9 358 353 356 358 352 346 0 0 351 324 315 317 331 336 345 350 359 359 340 316 286 260 252 241 240 242 243 239 243 246 244
35 38 34 27 28 39 35 33 29 27 23 17 360 352 347 351 349 357 6 5 2 356 344 345 346 358 349 350 360 359 4 339 298 253 245 251 246 244 246 242 240 249 255
16 31 44 44 60 58 54 43 41 30 23 19 9 358 352 354 356 357 3 6 9 13 1 354 357 358 0 4 1 358 356 349 341 280 269 275 270 259 245 238 233 228 230
8 4 5 28 40 56 60 54 56 47 38 30 18 4 1 358 355 5 7 10 9 11 3 6 8 10 4 1 357 352 353 353 350 343 284 280 273 259 248 245 236 225 218
23 17 28 29 22 32 43 52 50 41 37 36 34 28 17 14 14 20 18 18 18 23 21 17 11 8 4 356 355 347 351 350 348 342 334 291 278 262 268 263 254 210 206
63 67 65 54 49 46 42 48 35 40 34 30 23 24 23 20 19 20 21 18 20 26 24 19 11 4 358 355 352 349 344 344 343 343 341 344 300 272 272 285 301 172 185
71 73 74 65 68 67 64 63 56 38 22 20 20 22 19 25 21 20 20 20 18 22 18 12 8 1 357 355 351 347 343 345 347 344 343 342 337 329 271 266 280 275 164
71 72 75 71 64 69 67 60 50 40 28 24 17 19 18 14 19 21 22 23 16 13 7 7 6 360 357 355 351 349 346 343 343 342 342 339 333 328 316 267 250 223 186
73 71 70 67 62 58 56 53 42 38 32 25 21 17 13 14 17 14 15 15 14 10 6 5 4 360 357 356 353 350 349 348 346 345 340 337 332 325 316 311 219 176 171
71 67 67 65 60 58 57 52 48 39 31 27 22 20 21 21 14 13 11 10 8 6 3 1 2 0 359 356 354 353 351 347 344 343 339 337 332 327 329 300 192 156 139
76 76 70 64 62 60 57 55 51 42 36 29 22 21 20 24 15 11 9 6 4 4 3 1 1 1 359 356 355 353 351 349 346 343 340 336 335 333 333 334 138 139 137
80 79 72 62 62 64 57 52 46 40 35 31 23 21 18 16 11 9 5 5 5 3 5 2 1 360 1 359 357 355 352 350 344 340 337 337 339 343 343 336 134 130 134
74 76 72 65 57 57 50 43 39 35 26 21 18 18 18 13 10 6 3 2 3 3 2 1 2 360 358 358 357 355 352 353 353 351 352 344 346 349 353 9 100 119 119
74 70 69 65 51 49 45 38 33 29 23 17 12 12 10 11 9 7 3 360 359 359 360 0 359 357 356 356 356 355 355 357 3 7 0 355 359 5 5 8 82 102 115
78 68 65 58 49 42 36 31 27 23 19 14 12 11 0 8 7 5 3 2 359 358 358 357 355 354 354 355 354 354 356 360 6 12 7 6 8 8 10 8 18 95 114